Weather History for Litchfield, IL

Change the Weather History Date:

Monday, February 11, 2013

  Actual Average (KSPI) Record (KSPI)
Temperature  
Mean Temperature 38 °F 30 °F  
Max Temperature 45 °F 38 °F 69 °F (1999)
Min Temperature 32 °F 21 °F -13 °F (2014)
Degree Days  
Heating Degree Days 26 35  
Month to date heating degree days 399  
Since 1 July heating degree days 3725  
Cooling Degree Days 0 0  
Month to date cooling degree days 0  
Year to date cooling degree days 0  
Moisture  
Dew Point 29 °F    
Average Humidity 68    
Maximum Humidity 87    
Minimum Humidity 55    
Precipitation  
Precipitation 0.01 in 0.06 in 0.81 in (1998)
Month to date precipitation 0.64  
Year to date precipitation 2.46  
Snow  
Snow 0.00 in 0.20 in 4.50 in (1975)
Month to date snowfall 2.4  
Since 1 July snowfall 15.0  
Snow Depth -    
Sea Level Pressure  
Sea Level Pressure 29.98 in    
Wind  
Wind Speed 20 mph (West)    
Max Wind Speed 32 mph    
Max Gust Speed 43 mph    
Visibility 10 miles    
Events      
T = Trace of Precipitation, MM = Missing Value Source: NWS Daily Summary

Daily Weather History Graph

Daily Weather History Graph

Search for Another Location

Airport:

Trip Planner

Search our weather history database for the weather conditions in past years. The results will help you decide how hot, cold, wet, or windy it might be!

Date:

Astronomy

Feb. 11, 2013 Rise Set
Actual Time 6:54 AM CST 5:31 PM CST
Civil Twilight 6:27 AM CST 5:59 PM CST
Nautical Twilight 5:55 AM CST 6:30 PM CST
Astronomical Twilight 5:24 AM CST 7:01 PM CST
Moon 7:20 AM CST (2/11) 7:27 PM CST (2/11)
Length of Visible Light 11h 32m
Length of Day
10h 36m
Waxing Crescent, 3% of the Moon is Illuminated
Feb 11
Waxing Crescent
Feb 17
First Quarter
Feb 25
Full
Mar 4
Last Quarter
Mar 11
New

Hourly Weather History & Observations

Time (CST) Temp. Windchill Dew Point Humidity Pressure Visibility Wind Dir Wind Speed Gust Speed Precip Events Conditions
12:15 AM 43.3 °F 34.5 °F 32.2 °F 65% 29.75 in 10.0 mi West 21.9 mph 34.5 mph N/A   Clear
12:35 AM 42.1 °F 32.1 °F 31.3 °F 66% 29.76 in 10.0 mi WSW 25.3 mph 42.6 mph N/A   Clear
12:55 AM 41.0 °F 29.5 °F 31.1 °F 68% 29.77 in 10.0 mi WSW 32.2 mph 36.8 mph N/A   Clear
1:15 AM 41.0 °F 30.2 °F 29.7 °F 64% 29.78 in 10.0 mi WSW 27.6 mph 42.6 mph N/A   Clear
1:35 AM 40.6 °F 30.4 °F 29.8 °F 65% 29.78 in 10.0 mi WSW 24.2 mph 36.8 mph N/A   Scattered Clouds
1:55 AM 40.1 °F 28.6 °F 30.0 °F 67% 29.80 in 10.0 mi WSW 29.9 mph 38.0 mph N/A   Scattered Clouds
2:15 AM 38.5 °F 27.5 °F 27.5 °F 65% 29.82 in 10.0 mi West 24.2 mph 34.5 mph 0.01 in   Scattered Clouds
2:35 AM 37.4 °F 26.9 °F 26.8 °F 66% 29.82 in 10.0 mi West 20.7 mph 31.1 mph 0.01 in   Clear
2:55 AM 37.4 °F 26.6 °F 26.2 °F 64% 29.82 in 10.0 mi West 21.9 mph 31.1 mph 0.01 in   Clear
3:15 AM 36.5 °F 24.9 °F 26.8 °F 68% 29.82 in 10.0 mi West 24.2 mph 29.9 mph N/A   Scattered Clouds
3:35 AM 36.5 °F 24.9 °F 27.3 °F 69% 29.83 in 10.0 mi WSW 24.2 mph 29.9 mph N/A   Scattered Clouds
3:55 AM 36.5 °F 25.2 °F 27.1 °F 69% 29.83 in 10.0 mi WSW 23.0 mph 33.4 mph N/A   Clear
4:15 AM 36.0 °F 23.7 °F 25.7 °F 66% 29.84 in 10.0 mi West 26.5 mph 38.0 mph N/A   Clear
4:35 AM 35.6 °F 23.7 °F 25.3 °F 66% 29.85 in 10.0 mi West 24.2 mph 33.4 mph N/A   Clear
4:55 AM 35.1 °F 22.7 °F 25.7 °F 69% 29.86 in 10.0 mi West 25.3 mph 29.9 mph N/A   Clear
5:15 AM 34.9 °F 24.2 °F 26.4 °F 71% 29.86 in 10.0 mi West 18.4 mph 31.1 mph N/A   Scattered Clouds
5:35 AM 35.1 °F 23.8 °F 26.6 °F 71% 29.86 in 10.0 mi West 20.7 mph 28.8 mph N/A   Overcast
5:55 AM 35.6 °F 24.2 °F 27.0 °F 71% 29.87 in 10.0 mi West 21.9 mph 26.5 mph N/A   Mostly Cloudy
6:15 AM 36.0 °F 26.0 °F 27.3 °F 71% 29.88 in 10.0 mi West 17.3 mph 28.8 mph N/A   Mostly Cloudy
6:35 AM 35.6 °F 25.2 °F 27.5 °F 72% 29.90 in 10.0 mi West 18.4 mph - N/A   Scattered Clouds
6:55 AM 36.1 °F 25.5 °F 27.5 °F 71% 29.90 in 10.0 mi West 19.6 mph 25.3 mph N/A   Scattered Clouds
7:15 AM 36.0 °F 25.3 °F 27.5 °F 71% 29.91 in 10.0 mi West 19.6 mph 25.3 mph N/A   Scattered Clouds
7:35 AM 36.5 °F 25.7 °F 26.8 °F 68% 29.93 in 10.0 mi West 20.7 mph 29.9 mph N/A   Clear
7:55 AM 36.1 °F 26.2 °F 26.8 °F 69% 29.95 in 10.0 mi West 17.3 mph 26.5 mph N/A   Clear
8:15 AM 36.7 °F 27.6 °F 27.7 °F 70% 29.96 in 10.0 mi West 15.0 mph - N/A   Scattered Clouds
8:35 AM 37.0 °F 24.3 °F 25.9 °F 64% 29.97 in 10.0 mi West 31.1 mph 38.0 mph N/A   Clear
8:55 AM 37.0 °F 26.4 °F 25.3 °F 63% 29.97 in 10.0 mi West 20.7 mph 28.8 mph N/A   Clear
9:15 AM 37.4 °F 26.9 °F 27.3 °F 67% 29.97 in 10.0 mi West 20.7 mph 28.8 mph N/A   Scattered Clouds
9:35 AM 37.8 °F 27.7 °F 27.1 °F 66% 29.98 in 10.0 mi West 19.6 mph 25.3 mph N/A   Scattered Clouds
9:55 AM 37.8 °F 28.6 °F 27.7 °F 67% 29.99 in 10.0 mi West 16.1 mph 21.9 mph N/A   Scattered Clouds
10:15 AM 38.7 °F 28.3 °F 29.7 °F 70% 30.00 in 10.0 mi West 21.9 mph 28.8 mph N/A   Scattered Clouds
10:35 AM 39.2 °F 28.7 °F 29.1 °F 67% 30.01 in 10.0 mi WSW 23.0 mph 29.9 mph N/A   Scattered Clouds
10:55 AM 39.9 °F 29.2 °F 29.7 °F 67% 30.01 in 10.0 mi West 25.3 mph 31.1 mph N/A   Clear
11:15 AM 40.1 °F 29.7 °F 28.8 °F 64% 30.01 in 10.0 mi West 24.2 mph 29.9 mph N/A   Clear
11:35 AM 40.8 °F 31.1 °F 29.3 °F 64% 30.01 in 10.0 mi West 21.9 mph 31.1 mph N/A   Clear
11:55 AM 41.2 °F 31.6 °F 29.5 °F 63% 30.01 in 10.0 mi West 21.9 mph 28.8 mph N/A   Clear
12:15 PM 41.9 °F 32.3 °F 29.8 °F 62% 30.01 in 10.0 mi West 23.0 mph 28.8 mph N/A   Clear
12:35 PM 42.8 °F 34.0 °F 30.9 °F 63% 30.00 in 10.0 mi West 20.7 mph 25.3 mph N/A   Clear
12:55 PM 43.0 °F 34.5 °F 30.7 °F 62% 30.00 in 10.0 mi West 19.6 mph 28.8 mph N/A   Clear
1:15 PM 43.2 °F 34.7 °F 29.8 °F 59% 30.01 in 10.0 mi West 19.6 mph 29.9 mph N/A   Clear
1:35 PM 43.5 °F 35.8 °F 29.8 °F 59% 30.01 in 10.0 mi West 17.3 mph 26.5 mph N/A   Clear
1:55 PM 43.9 °F 35.4 °F 30.7 °F 60% 30.02 in 10.0 mi WSW 20.7 mph - N/A   Clear
2:15 PM 44.2 °F 36.2 °F 30.7 °F 59% 30.01 in 10.0 mi West 19.6 mph 25.3 mph N/A   Clear
2:35 PM 44.6 °F 36.4 °F 30.2 °F 57% 30.02 in 10.0 mi West 20.7 mph - N/A   Clear
2:55 PM 44.6 °F 36.6 °F 29.8 °F 56% 30.02 in 10.0 mi West 19.6 mph 27.6 mph N/A   Clear
3:15 PM 45.0 °F 36.2 °F 31.3 °F 59% 30.03 in 10.0 mi West 24.2 mph 28.8 mph N/A   Clear
3:35 PM 45.0 °F 37.1 °F 29.5 °F 55% 30.03 in 10.0 mi West 19.6 mph 26.5 mph N/A   Clear
3:55 PM 45.0 °F 37.6 °F 30.4 °F 57% 30.03 in 10.0 mi West 17.3 mph 23.0 mph N/A   Clear
4:55 PM 43.9 °F 36.5 °F 29.3 °F 57% 30.05 in 10.0 mi West 16.1 mph 20.7 mph N/A   Clear
5:15 PM 43.0 °F 36.0 °F 29.1 °F 58% 30.04 in 10.0 mi West 13.8 mph - N/A   Clear
5:35 PM 42.1 °F 34.9 °F 28.6 °F 59% 30.05 in 10.0 mi West 13.8 mph - N/A   Clear
5:55 PM 41.0 °F 34.7 °F 29.3 °F 63% 30.05 in 10.0 mi West 10.4 mph 16.1 mph N/A   Clear
6:15 PM 40.1 °F 34.7 °F 29.8 °F 67% 30.06 in 10.0 mi West 8.1 mph - N/A   Clear
6:35 PM 39.9 °F 32.9 °F 29.3 °F 66% 30.07 in 10.0 mi West 11.5 mph - N/A   Clear
6:55 PM 39.4 °F 32.7 °F 28.9 °F 66% 30.08 in 10.0 mi West 10.4 mph - N/A   Clear
7:15 PM 37.2 °F 32.6 °F 29.5 °F 74% 30.08 in 10.0 mi West 5.8 mph - N/A   Clear
7:35 PM 36.3 °F 30.8 °F 29.3 °F 76% 30.08 in 10.0 mi West 6.9 mph - N/A   Clear
7:55 PM 36.0 °F 30.3 °F 29.3 °F 77% 30.09 in 10.0 mi West 6.9 mph - N/A   Clear
8:15 PM 35.2 °F 30.3 °F 29.1 °F 78% 30.09 in 10.0 mi West 5.8 mph - N/A   Clear
8:35 PM 34.9 °F 29.9 °F 28.8 °F 78% 30.10 in 10.0 mi West 5.8 mph - N/A   Clear
8:55 PM 35.4 °F 29.7 °F 28.6 °F 76% 30.10 in 10.0 mi West 6.9 mph - N/A   Clear
9:15 PM 34.7 °F 28.8 °F 28.9 °F 79% 30.11 in 10.0 mi West 6.9 mph - N/A   Clear
9:35 PM 34.2 °F 28.2 °F 28.8 °F 81% 30.11 in 10.0 mi West 6.9 mph - N/A   Clear
9:55 PM 34.2 °F 28.2 °F 28.8 °F 81% 30.11 in 10.0 mi WSW 6.9 mph - N/A   Clear
10:15 PM 34.3 °F 28.4 °F 28.6 °F 79% 30.12 in 10.0 mi West 6.9 mph - N/A   Clear
10:35 PM 33.4 °F 27.3 °F 28.8 °F 83% 30.13 in 10.0 mi West 6.9 mph - N/A   Clear
10:55 PM 34.3 °F 30.2 °F 28.0 °F 78% 30.13 in 10.0 mi NW 4.6 mph - N/A   Clear
11:15 PM 32.2 °F 28.9 °F 28.2 °F 85% 30.14 in 10.0 mi NW 3.5 mph - N/A   Clear
11:35 PM 32.0 °F 27.5 °F 28.4 °F 87% 30.15 in 10.0 mi WNW 4.6 mph - N/A   Clear
11:55 PM 32.0 °F 26.4 °F 27.5 °F 83% 30.15 in 10.0 mi NW 5.8 mph - N/A   Clear